Weather History for KJYM - November, 2013

Change the Weather History Date:

Saturday, November 30, 2013

  Actual Average Record
Temperature  
Mean Temperature 36 °F -  
Max Temperature 46 °F 40 °F 63 °F (1962)
Min Temperature 27 °F 26 °F 1 °F (1958)
Degree Days  
Heating Degree Days 28    
Moisture  
Dew Point 23 °F    
Average Humidity 63    
Maximum Humidity 76    
Minimum Humidity 45    
Precipitation  
Precipitation 0.00 in - - ()
Sea Level Pressure  
Sea Level Pressure 30.25 in    
Wind  
Wind Speed 8 mph (South)    
Max Wind Speed 14 mph    
Max Gust Speed 18 mph    
Visibility 10 miles    
Events      
Averages and records for this station are not official NWS values.
T = Trace of Precipitation, MM = Missing Value Source: NWS Daily Summary

Daily Weather History Graph

Daily Weather History Graph

Search for Another Location

Airport or City:

Trip Planner

Search our weather history database for the weather conditions in past years. The results will help you decide how hot, cold, wet, or windy it might be!

Date:

Astronomy

Nov. 30, 2013 Rise Set
Actual Time 7:45 AM EST 5:08 PM EST
Civil Twilight 7:14 AM EST 5:39 PM EST
Nautical Twilight 6:40 AM EST 6:13 PM EST
Astronomical Twilight 6:06 AM EST 6:47 PM EST
Moon 4:53 AM EST (11/30) 3:33 PM EST (11/30)
Length of Visible Light 10h 24m
Length of Day
9h 22m
Waning Crescent, 7% of the Moon is Illuminated
Nov 30
Waning Crescent
Dec 2
New
Dec 9
First Quarter
Dec 17
Full
Dec 25
Last Quarter

Hourly Weather History & Observations

Time (EST) Temp. Windchill Dew Point Humidity Pressure Visibility Wind Dir Wind Speed Gust Speed Precip Events Conditions
12:14 AM 27.7 °F 21.3 °F 19.9 °F 73% 30.48 in 10.0 mi South 5.8 mph - N/A   Clear
12:35 AM 28.0 °F 20.8 °F 19.6 °F 71% 30.47 in 10.0 mi SSE 6.9 mph - N/A   Mostly Cloudy
12:55 AM 28.0 °F 19.3 °F 19.6 °F 71% 30.47 in 10.0 mi SSE 9.2 mph - N/A   Overcast
1:14 AM 28.0 °F 19.3 °F 19.8 °F 71% 30.46 in 10.0 mi SSE 9.2 mph - N/A   Overcast
1:35 AM 27.9 °F 19.1 °F 19.6 °F 71% 30.45 in 10.0 mi SSE 9.2 mph - N/A   Mostly Cloudy
1:54 AM 27.7 °F 19.6 °F 19.2 °F 71% 30.44 in 10.0 mi SSE 8.1 mph - N/A   Scattered Clouds
2:14 AM 27.7 °F 21.3 °F 19.0 °F 70% 30.44 in 10.0 mi SSE 5.8 mph - N/A   Mostly Cloudy
2:35 AM 27.7 °F 20.4 °F 19.0 °F 70% 30.44 in 10.0 mi SSE 6.9 mph - N/A   Mostly Cloudy
2:54 AM 27.3 °F 19.9 °F 19.2 °F 72% 30.43 in 10.0 mi SSE 6.9 mph - N/A   Mostly Cloudy
3:14 AM 27.0 °F 19.5 °F 19.2 °F 73% 30.43 in 10.0 mi SSE 6.9 mph - N/A   Scattered Clouds
3:35 AM 27.1 °F 18.9 °F 19.4 °F 73% 30.42 in 10.0 mi South 8.1 mph - N/A   Scattered Clouds
3:54 AM 27.7 °F 18.8 °F 19.6 °F 72% 30.40 in 10.0 mi South 9.2 mph - N/A   Scattered Clouds
4:15 AM 27.9 °F 18.4 °F 19.8 °F 72% 30.40 in 10.0 mi South 10.4 mph - N/A   Overcast
4:35 AM 27.9 °F 19.8 °F 19.8 °F 72% 30.40 in 10.0 mi South 8.1 mph - N/A   Mostly Cloudy
4:54 AM 27.7 °F 18.8 °F 19.8 °F 72% 30.39 in 10.0 mi South 9.2 mph - N/A   Mostly Cloudy
5:15 AM 27.7 °F 19.6 °F 19.9 °F 73% 30.39 in 10.0 mi South 8.1 mph - N/A   Mostly Cloudy
5:34 AM 27.7 °F 19.6 °F 20.1 °F 73% 30.39 in 10.0 mi South 8.1 mph - N/A   Mostly Cloudy
5:55 AM 27.7 °F 18.8 °F 20.1 °F 73% 30.38 in 10.0 mi South 9.2 mph - N/A   Mostly Cloudy
6:14 AM 27.5 °F 17.4 °F 20.5 °F 75% 30.37 in 10.0 mi South 11.5 mph - N/A   Scattered Clouds
6:34 AM 27.5 °F 18.0 °F 20.5 °F 75% 30.37 in 10.0 mi South 10.4 mph - N/A   Mostly Cloudy
6:55 AM 27.3 °F 18.4 °F 20.7 °F 76% 30.36 in 10.0 mi South 9.2 mph - N/A   Scattered Clouds
7:14 AM 27.7 °F 19.6 °F 20.7 °F 75% 30.36 in 10.0 mi South 8.1 mph - N/A   Clear
7:35 AM 27.9 °F 19.1 °F 20.8 °F 75% 30.36 in 10.0 mi South 9.2 mph - N/A   Scattered Clouds
7:55 AM 28.0 °F 18.1 °F 20.7 °F 74% 30.35 in 10.0 mi South 11.5 mph - N/A   Scattered Clouds
8:14 AM 28.0 °F 19.3 °F 20.8 °F 74% 30.35 in 10.0 mi South 9.2 mph - N/A   Clear
8:35 AM 27.7 °F 18.2 °F 20.8 °F 75% 30.35 in 10.0 mi South 10.4 mph - N/A   Clear
8:55 AM 28.8 °F 19.0 °F 21.4 °F 74% 30.34 in 7.0 mi South 11.5 mph - N/A   Clear
9:14 AM 29.7 °F 21.3 °F 21.7 °F 72% 30.34 in 10.0 mi South 9.2 mph - N/A   Clear
9:35 AM 31.5 °F 23.5 °F 21.9 °F 68% 30.33 in 10.0 mi South 9.2 mph - N/A   Clear
9:55 AM 33.1 °F 24.9 °F 22.3 °F 65% 30.32 in 10.0 mi South 10.4 mph - N/A   Clear
10:14 AM 34.0 °F 24.6 °F 22.3 °F 62% 30.31 in 10.0 mi SSW 13.8 mph 18.4 mph N/A   Clear
10:35 AM 35.1 °F 27.4 °F 22.5 °F 60% 30.30 in 10.0 mi South 10.4 mph - N/A   Clear
10:54 AM 35.1 °F 27.4 °F 22.8 °F 61% 30.29 in 10.0 mi SSW 10.4 mph - N/A   Clear
11:14 AM 37.4 °F 30.3 °F 23.5 °F 57% 30.28 in 10.0 mi South 10.4 mph - N/A   Clear
11:35 AM 39.2 °F 32.0 °F 23.9 °F 54% 30.26 in 10.0 mi South 11.5 mph - N/A   Clear
11:54 AM 40.3 °F 34.4 °F 23.9 °F 52% 30.25 in 10.0 mi South 9.2 mph - N/A   Clear
12:14 PM 41.2 °F 35.0 °F 24.3 °F 51% 30.24 in 10.0 mi South 10.4 mph - N/A   Clear
12:35 PM 42.6 °F 37.2 °F 24.8 °F 49% 30.22 in 10.0 mi SSW 9.2 mph 17.3 mph N/A   Clear
12:54 PM 42.8 °F 37.5 °F 25.0 °F 49% 30.21 in 10.0 mi SSW 9.2 mph - N/A   Clear
1:14 PM 43.5 °F 40.1 °F 25.3 °F 49% 30.20 in 10.0 mi SSW 5.8 mph 9.2 mph N/A   Clear
1:35 PM 44.8 °F 39.9 °F 25.5 °F 47% 30.19 in 10.0 mi SSW 9.2 mph - N/A   Clear
1:54 PM 45.1 °F 38.8 °F 25.5 °F 46% 30.18 in 10.0 mi SSW 13.8 mph - N/A   Clear
2:15 PM 45.9 °F 40.8 °F 25.9 °F 46% 30.17 in 10.0 mi SW 10.4 mph - N/A   Clear
2:35 PM 46.2 °F 41.2 °F 25.9 °F 45% 30.16 in 10.0 mi SSW 10.4 mph - N/A   Clear
2:54 PM 46.8 °F - 26.2 °F 45% 30.15 in 10.0 mi SW 6.9 mph - N/A   Clear
3:15 PM 46.8 °F - 26.4 °F 45% 30.13 in 10.0 mi SSW 8.1 mph - N/A   Clear
3:35 PM 46.8 °F - 26.6 °F 45% 30.13 in 10.0 mi SSW 11.5 mph 17.3 mph N/A   Clear
3:54 PM 46.4 °F 41.9 °F 26.8 °F 46% 30.12 in 10.0 mi SSW 9.2 mph 17.3 mph N/A   Clear
4:15 PM 46.0 °F 41.9 °F 27.0 °F 47% 30.12 in 10.0 mi SSW 8.1 mph - N/A   Clear
4:34 PM 45.1 °F 42.8 °F 27.0 °F 49% 30.12 in 10.0 mi SSW 4.6 mph - N/A   Clear
4:55 PM 44.1 °F 40.1 °F 27.0 °F 51% 30.11 in 10.0 mi SSW 6.9 mph - N/A   Clear
5:14 PM 42.8 °F 40.1 °F 26.8 °F 53% 30.12 in 10.0 mi SSW 4.6 mph - N/A   Clear
5:34 PM 41.7 °F 38.8 °F 26.4 °F 55% 30.12 in 10.0 mi SSW 4.6 mph - N/A   Clear
5:55 PM 40.6 °F 37.5 °F 26.2 °F 57% 30.12 in 10.0 mi SSW 4.6 mph - N/A   Clear
6:14 PM 40.5 °F 36.5 °F 26.2 °F 57% 30.12 in 10.0 mi SSW 5.8 mph - N/A   Clear
6:34 PM 39.9 °F 37.8 °F 26.2 °F 58% 30.12 in 10.0 mi South 3.5 mph - N/A   Clear
6:55 PM 39.2 °F 35.9 °F 26.2 °F 60% 30.12 in 10.0 mi South 4.6 mph - N/A   Clear
7:14 PM 38.3 °F 34.8 °F 26.1 °F 61% 30.12 in 10.0 mi South 4.6 mph - N/A   Clear
7:34 PM 37.8 °F 33.3 °F 26.1 °F 63% 30.11 in 10.0 mi South 5.8 mph - N/A   Clear
7:55 PM 37.8 °F 32.5 °F 26.2 °F 63% 30.11 in 10.0 mi South 6.9 mph - N/A   Clear
8:14 PM 37.4 °F 32.8 °F 26.2 °F 64% 30.11 in 10.0 mi South 5.8 mph - N/A   Clear
8:35 PM 37.2 °F 32.6 °F 26.1 °F 64% 30.10 in 10.0 mi South 5.8 mph - N/A   Clear
8:55 PM 36.9 °F 31.4 °F 26.1 °F 65% 30.10 in 10.0 mi South 6.9 mph - N/A   Clear
9:14 PM 36.9 °F 31.4 °F 26.1 °F 65% 30.10 in 10.0 mi South 6.9 mph - N/A   Clear
9:35 PM 37.0 °F 32.4 °F 26.2 °F 65% 30.10 in 10.0 mi South 5.8 mph - N/A   Clear
9:55 PM 37.0 °F 31.6 °F 26.2 °F 65% 30.09 in 10.0 mi SSW 6.9 mph - N/A   Clear
10:14 PM 36.7 °F 32.0 °F 26.1 °F 65% 30.09 in 10.0 mi SSW 5.8 mph - N/A   Clear
10:35 PM 36.7 °F 31.2 °F 26.1 °F 65% 30.09 in 10.0 mi SSW 6.9 mph - N/A   Clear
10:54 PM 37.0 °F 33.3 °F 26.1 °F 65% 30.08 in 10.0 mi SW 4.6 mph - N/A   Clear
11:15 PM 37.6 °F 32.3 °F 26.1 °F 63% 30.08 in 10.0 mi SW 6.9 mph - N/A   Clear
11:34 PM 37.9 °F 32.7 °F 26.1 °F 62% 30.08 in 10.0 mi SW 6.9 mph - N/A   Scattered Clouds
11:54 PM 39.4 °F 34.5 °F 26.2 °F 59% 30.07 in 10.0 mi WSW 6.9 mph - N/A   Mostly Cloudy